Regional Weather Roundup
Issued by NWS

Home | Current Version | Previous Version | Text Only | Print | Product List | Glossary On
Versions: 1 2 3 4 5 6 7 8 9 10 11 12 13 14 15 16 17 18 19 20 21 22 23 24 25 26 27 28 29 30 31 32 33 34 35 36 37 38 39 40 41 42 43 44 45 46 47 48 49 50
000
ASUS42 KKEY 040510
RWRKEY

FLORIDA REGIONAL WEATHER ROUNDUP FOR THE FLORIDA KEYS
NATIONAL WEATHER SERVICE KEY WEST FLORIDA
1200 AM EST WED MAR 04 2015

...SOUTH FLORIDA AND THE KEYS...

CITY           SKY/WX    TMP DP  RH WIND       PRES   REMARKS
FORT MYERS     CLEAR     67  64  90 SE6       30.14S
SW REGIONAL AP CLEAR     66  62  87 E6        30.14F
NAPLES         CLEAR     69  65  86 E7        30.13F
MIAMI          PTCLDY    75  67  76 E14       30.15F
WEST KENDALL   PTCLDY    73  68  84 SE10G22   30.14F
HOMESTEAD      CLEAR     75  68  78 E14G22    30.13F
MARATHON       CLEAR     76  69  79 E9G18     30.12F
BOCA CHICA NAS CLEAR     75  69  81 E14       30.11F
KEY WEST INTL  CLEAR     76  70  82 E16       30.11F

...INTERNATIONAL WEATHER...

CITY           SKY/WX    TMP DP  RH WIND       PRES   REMARKS
NASSAU BAHAMAS PTCLDY    73  66  78 E6        30.19F
CANCUN MEXICO  PTCLDY    79  72  78 SE13      30.02F
COZUMEL MEXICO PTCLDY    72  72 100 E10       30.02S

ADJACENT COASTAL WATERS...

STATION/POSITION TIME  SKY/WX   TEMP    WIND        PRES    WAVE
                                AIR SEA DIR/SP/G            HT/PER
                 (UTC)          (F)     (DEG/KT/KT) (MB)    (FT/S)
PULASKI SHOAL LI 0400            74     120/ 15/ 17 1019.3F
SAND KEY         0450            75     110/ 16/ 19 1019.4F
SOMBRERO KEY     0500            76     110/ 22/ 23 1020.2F
LONG KEY         0400            76 78  110/ 13/ 14 1021.2F
MOLASSES REEF    0500            76 76  110/ 16/ 18 1020.3F
FOWEY ROCKS      NOT AVBL
Buoy 42080       NOT AVBL

$$



USA.gov is the U.S. government's official web portal to all federal, state and local government web resources and services.